Wetterdaten: Dienstag, 17.01.2017
Datum Zeit Temperatur Luftfeuchte Luftdruck Regen Wind Richtung Richtung Sonnenschein ET UV Solar Taupunkt Windchill Windben
17.01.2017 00:00 -8,2 C 90 % 1032,8 hPa 0,0 l/m 0,0 km/h (0 Bft) SW 227 0 min 0,000 mm 0,0 UV-I 0 W/m -9,5 C -8,2 C 0,0 km/h (0 Bft)
17.01.2017 00:05 -8,1 C 90 % 1032,9 hPa 0,0 l/m 0,0 km/h (0 Bft) SW 227 0 min 0,000 mm 0,0 UV-I 0 W/m -9,4 C -8,1 C 0,0 km/h (0 Bft)
17.01.2017 00:10 -7,9 C 90 % 1032,9 hPa 0,0 l/m 0,0 km/h (0 Bft) O-SO 105 0 min 0,000 mm 0,0 UV-I 0 W/m -9,2 C -7,9 C 0,0 km/h (0 Bft)
17.01.2017 00:15 -7,8 C 91 % 1033,1 hPa 0,0 l/m 0,0 km/h (0 Bft) O-SO 105 0 min 0,000 mm 0,0 UV-I 0 W/m -9,0 C -7,8 C 0,0 km/h (0 Bft)
17.01.2017 00:20 -7,7 C 91 % 1033,1 hPa 0,0 l/m 0,0 km/h (0 Bft) O-SO 105 0 min 0,000 mm 0,0 UV-I 0 W/m -8,9 C -7,7 C 0,0 km/h (0 Bft)
17.01.2017 00:25 -7,6 C 91 % 1033,2 hPa 0,0 l/m 0,0 km/h (0 Bft) O-SO 105 0 min 0,000 mm 0,0 UV-I 0 W/m -8,8 C -7,6 C 0,0 km/h (0 Bft)
17.01.2017 00:30 -7,4 C 91 % 1033,2 hPa 0,0 l/m 0,0 km/h (0 Bft) O-SO 105 0 min 0,000 mm 0,0 UV-I 0 W/m -8,6 C -7,4 C 0,0 km/h (0 Bft)
17.01.2017 00:35 -7,3 C 91 % 1033,2 hPa 0,0 l/m 0,0 km/h (0 Bft) O-SO 105 0 min 0,000 mm 0,0 UV-I 0 W/m -8,5 C -7,3 C 0,0 km/h (0 Bft)
17.01.2017 00:40 -7,2 C 91 % 1033,2 hPa 0,0 l/m 0,0 km/h (0 Bft) O-SO 105 0 min 0,000 mm 0,0 UV-I 0 W/m -8,4 C -7,2 C 0,0 km/h (0 Bft)
17.01.2017 00:45 -6,9 C 91 % 1033,2 hPa 0,0 l/m 0,0 km/h (0 Bft) O 93 0 min 0,000 mm 0,0 UV-I 0 W/m -8,1 C -6,9 C 0,0 km/h (0 Bft)
17.01.2017 00:50 -6,8 C 91 % 1033,2 hPa 0,0 l/m 0,0 km/h (0 Bft) O 93 0 min 0,000 mm 0,0 UV-I 0 W/m -8,0 C -6,8 C 0,0 km/h (0 Bft)
17.01.2017 00:55 -6,7 C 91 % 1033,2 hPa 0,0 l/m 0,0 km/h (0 Bft) O 93 0 min 0,000 mm 0,0 UV-I 0 W/m -7,9 C -6,7 C 0,0 km/h (0 Bft)
17.01.2017 01:00 -6,7 C 91 % 1033,2 hPa 0,0 l/m 0,0 km/h (0 Bft) NO 42 0 min 0,000 mm 0,0 UV-I 0 W/m -7,9 C -6,7 C 0,0 km/h (0 Bft)
17.01.2017 01:05 -6,6 C 91 % 1033,2 hPa 0,0 l/m 0,0 km/h (0 Bft) NO 42 0 min 0,000 mm 0,0 UV-I 0 W/m -7,8 C -6,6 C 0,0 km/h (0 Bft)
17.01.2017 01:10 -6,6 C 90 % 1033,1 hPa 0,0 l/m 0,0 km/h (0 Bft) NO 42 0 min 0,000 mm 0,0 UV-I 0 W/m -8,0 C -6,6 C 0,0 km/h (0 Bft)
17.01.2017 01:15 -6,5 C 90 % 1033,1 hPa 0,0 l/m 0,0 km/h (0 Bft) NO 42 0 min 0,000 mm 0,0 UV-I 0 W/m -7,9 C -6,5 C 0,0 km/h (0 Bft)
17.01.2017 01:20 -6,4 C 91 % 1033,2 hPa 0,0 l/m 0,0 km/h (0 Bft) NO 42 0 min 0,000 mm 0,0 UV-I 0 W/m -7,6 C -6,4 C 0,0 km/h (0 Bft)
17.01.2017 01:25 -6,2 C 91 % 1033,2 hPa 0,0 l/m 0,0 km/h (0 Bft) NO 42 0 min 0,000 mm 0,0 UV-I 0 W/m -7,4 C -6,2 C 0,0 km/h (0 Bft)
17.01.2017 01:30 -6,2 C 91 % 1033,3 hPa 0,0 l/m 0,0 km/h (0 Bft) NO 42 0 min 0,000 mm 0,0 UV-I 0 W/m -7,4 C -6,2 C 0,0 km/h (0 Bft)
17.01.2017 01:35 -6,1 C 91 % 1033,3 hPa 0,0 l/m 0,0 km/h (0 Bft) SO 140 0 min 0,000 mm 0,0 UV-I 0 W/m -7,3 C -6,1 C 0,0 km/h (0 Bft)
17.01.2017 01:40 -6,1 C 90 % 1033,3 hPa 0,0 l/m 0,0 km/h (0 Bft) O-NO 59 0 min 0,000 mm 0,0 UV-I 0 W/m -7,5 C -6,1 C 0,0 km/h (0 Bft)
17.01.2017 01:45 -5,8 C 91 % 1033,4 hPa 0,0 l/m 0,0 km/h (0 Bft) O-NO 59 0 min 0,000 mm 0,0 UV-I 0 W/m -7,0 C -5,8 C 0,0 km/h (0 Bft)
17.01.2017 01:50 -5,8 C 90 % 1033,4 hPa 0,0 l/m 0,0 km/h (0 Bft) O-NO 59 0 min 0,000 mm 0,0 UV-I 0 W/m -7,2 C -5,8 C 0,0 km/h (0 Bft)
17.01.2017 01:55 -5,8 C 90 % 1033,4 hPa 0,0 l/m 0,0 km/h (0 Bft) O-NO 59 0 min 0,000 mm 0,0 UV-I 0 W/m -7,2 C -5,8 C 0,0 km/h (0 Bft)
17.01.2017 02:00 -5,6 C 91 % 1033,6 hPa 0,0 l/m 0,0 km/h (0 Bft) NO 44 0 min 0,000 mm 0,0 UV-I 0 W/m -6,8 C -5,6 C 0,0 km/h (0 Bft)
17.01.2017 02:05 -5,4 C 91 % 1033,6 hPa 0,0 l/m 0,0 km/h (0 Bft) NO 44 0 min 0,000 mm 0,0 UV-I 0 W/m -6,6 C -5,4 C 0,0 km/h (0 Bft)
17.01.2017 02:10 -5,2 C 91 % 1033,7 hPa 0,0 l/m 0,0 km/h (0 Bft) O-NO 74 0 min 0,000 mm 0,0 UV-I 0 W/m -6,4 C -5,2 C 0,0 km/h (0 Bft)
17.01.2017 02:15 -5,1 C 91 % 1033,7 hPa 0,0 l/m 0,0 km/h (0 Bft) O 98 0 min 0,000 mm 0,0 UV-I 0 W/m -6,3 C -5,1 C 0,0 km/h (0 Bft)
17.01.2017 02:20 -5,0 C 90 % 1033,7 hPa 0,0 l/m 0,5 km/h (0 Bft) NO 47 0 min 0,000 mm 0,0 UV-I 0 W/m -6,4 C -5,0 C 6,4 km/h (2 Bft)
17.01.2017 02:25 -4,6 C 90 % 1033,7 hPa 0,0 l/m 3,1 km/h (1 Bft) O-NO 63 0 min 0,000 mm 0,0 UV-I 0 W/m -6,0 C -4,6 C 14,5 km/h (3 Bft)
17.01.2017 02:30 -4,4 C 89 % 1033,8 hPa 0,0 l/m 3,1 km/h (1 Bft) NO 55 0 min 0,000 mm 0,0 UV-I 0 W/m -5,9 C -4,4 C 9,7 km/h (2 Bft)
17.01.2017 02:35 -4,3 C 89 % 1033,8 hPa 0,0 l/m 3,1 km/h (1 Bft) O-NO 68 0 min 0,000 mm 0,0 UV-I 0 W/m -5,8 C -4,3 C 11,3 km/h (2 Bft)
17.01.2017 02:40 -4,3 C 89 % 1033,8 hPa 0,0 l/m 0,0 km/h (0 Bft) O-NO 68 0 min 0,000 mm 0,0 UV-I 0 W/m -5,8 C -4,3 C 0,0 km/h (0 Bft)
17.01.2017 02:45 -4,3 C 88 % 1033,9 hPa 0,0 l/m 0,0 km/h (0 Bft) O-NO 78 0 min 0,000 mm 0,0 UV-I 0 W/m -6,0 C -4,3 C 0,0 km/h (0 Bft)
17.01.2017 02:50 -4,2 C 88 % 1033,9 hPa 0,0 l/m 0,7 km/h (0 Bft) O-NO 67 0 min 0,000 mm 0,0 UV-I 0 W/m -5,9 C -4,2 C 6,4 km/h (2 Bft)
17.01.2017 02:55 -4,2 C 88 % 1033,9 hPa 0,0 l/m 0,0 km/h (0 Bft) O-NO 67 0 min 0,000 mm 0,0 UV-I 0 W/m -5,9 C -4,2 C 0,0 km/h (0 Bft)
17.01.2017 03:00 -4,2 C 87 % 1033,9 hPa 0,0 l/m 0,1 km/h (0 Bft) O-NO 63 0 min 0,000 mm 0,0 UV-I 0 W/m -6,0 C -4,2 C 1,6 km/h (1 Bft)
17.01.2017 03:05 -4,2 C 87 % 1033,9 hPa 0,0 l/m 0,0 km/h (0 Bft) NO 47 0 min 0,000 mm 0,0 UV-I 0 W/m -6,0 C -4,2 C 1,6 km/h (1 Bft)
17.01.2017 03:10 -4,2 C 87 % 1034,0 hPa 0,0 l/m 0,0 km/h (0 Bft) NO 47 0 min 0,000 mm 0,0 UV-I 0 W/m -6,0 C -4,2 C 0,0 km/h (0 Bft)
17.01.2017 03:15 -4,2 C 87 % 1034,0 hPa 0,0 l/m 0,0 km/h (0 Bft) N-NO 19 0 min 0,000 mm 0,0 UV-I 0 W/m -6,0 C -4,2 C 0,0 km/h (0 Bft)
17.01.2017 03:20 -4,2 C 86 % 1034,1 hPa 0,0 l/m 0,0 km/h (0 Bft) N-NO 22 0 min 0,000 mm 0,0 UV-I 0 W/m -6,2 C -4,2 C 0,0 km/h (0 Bft)
17.01.2017 03:25 -4,2 C 86 % 1034,0 hPa 0,0 l/m 0,1 km/h (0 Bft) O-NO 65 0 min 0,000 mm 0,0 UV-I 0 W/m -6,2 C -4,2 C 1,6 km/h (1 Bft)
17.01.2017 03:30 -4,2 C 86 % 1034,0 hPa 0,0 l/m 0,0 km/h (0 Bft) O-NO 65 0 min 0,000 mm 0,0 UV-I 0 W/m -6,2 C -4,2 C 0,0 km/h (0 Bft)
17.01.2017 03:35 -4,1 C 86 % 1034,1 hPa 0,0 l/m 0,0 km/h (0 Bft) O-NO 57 0 min 0,000 mm 0,0 UV-I 0 W/m -6,1 C -4,1 C 0,0 km/h (0 Bft)
17.01.2017 03:40 -4,1 C 86 % 1034,1 hPa 0,0 l/m 0,0 km/h (0 Bft) O-NO 57 0 min 0,000 mm 0,0 UV-I 0 W/m -6,1 C -4,1 C 0,0 km/h (0 Bft)
17.01.2017 03:45 -4,1 C 86 % 1034,1 hPa 0,0 l/m 0,0 km/h (0 Bft) NO 50 0 min 0,000 mm 0,0 UV-I 0 W/m -6,1 C -4,1 C 0,0 km/h (0 Bft)
17.01.2017 03:50 -4,1 C 86 % 1034,2 hPa 0,0 l/m 0,0 km/h (0 Bft) NO 50 0 min 0,000 mm 0,0 UV-I 0 W/m -6,1 C -4,1 C 0,0 km/h (0 Bft)
17.01.2017 03:55 -4,1 C 86 % 1034,2 hPa 0,0 l/m 0,0 km/h (0 Bft) NO 55 0 min 0,000 mm 0,0 UV-I 0 W/m -6,1 C -4,1 C 0,0 km/h (0 Bft)
17.01.2017 04:00 -4,0 C 86 % 1034,2 hPa 0,0 l/m 0,0 km/h (0 Bft) NO 55 0 min 0,000 mm 0,0 UV-I 0 W/m -6,0 C -4,0 C 0,0 km/h (0 Bft)
17.01.2017 04:05 -4,0 C 86 % 1034,1 hPa 0,0 l/m 0,0 km/h (0 Bft) NO 55 0 min 0,000 mm 0,0 UV-I 0 W/m -6,0 C -4,0 C 0,0 km/h (0 Bft)
17.01.2017 04:10 -4,0 C 86 % 1034,1 hPa 0,0 l/m 0,0 km/h (0 Bft) NO 51 0 min 0,000 mm 0,0 UV-I 0 W/m -6,0 C -4,0 C 0,0 km/h (0 Bft)
17.01.2017 04:15 -3,9 C 85 % 1034,2 hPa 0,0 l/m 0,0 km/h (0 Bft) NO 51 0 min 0,000 mm 0,0 UV-I 0 W/m -6,0 C -3,9 C 0,0 km/h (0 Bft)
17.01.2017 04:20 -4,0 C 85 % 1034,2 hPa 0,0 l/m 0,0 km/h (0 Bft) NO 51 0 min 0,000 mm 0,0 UV-I 0 W/m -6,1 C -4,0 C 0,0 km/h (0 Bft)
17.01.2017 04:25 -4,0 C 86 % 1034,2 hPa 0,0 l/m 0,0 km/h (0 Bft) NO 51 0 min 0,000 mm 0,0 UV-I 0 W/m -6,0 C -4,0 C 0,0 km/h (0 Bft)
17.01.2017 04:30 -4,0 C 86 % 1034,3 hPa 0,0 l/m 0,0 km/h (0 Bft) NO 51 0 min 0,000 mm 0,0 UV-I 0 W/m -6,0 C -4,0 C 0,0 km/h (0 Bft)
17.01.2017 04:35 -4,1 C 86 % 1034,3 hPa 0,0 l/m 0,0 km/h (0 Bft) N-NO 32 0 min 0,000 mm 0,0 UV-I 0 W/m -6,1 C -4,1 C 0,0 km/h (0 Bft)
17.01.2017 04:40 -4,1 C 86 % 1034,4 hPa 0,0 l/m 0,0 km/h (0 Bft) NO 51 0 min 0,000 mm 0,0 UV-I 0 W/m -6,1 C -4,1 C 0,0 km/h (0 Bft)
17.01.2017 04:45 -4,1 C 86 % 1034,4 hPa 0,0 l/m 0,0 km/h (0 Bft) NO 51 0 min 0,000 mm 0,0 UV-I 0 W/m -6,1 C -4,1 C 0,0 km/h (0 Bft)
17.01.2017 04:50 -4,0 C 86 % 1034,3 hPa 0,0 l/m 0,0 km/h (0 Bft) NO 51 0 min 0,000 mm 0,0 UV-I 0 W/m -6,0 C -4,0 C 0,0 km/h (0 Bft)
17.01.2017 04:55 -4,1 C 86 % 1034,3 hPa 0,0 l/m 0,0 km/h (0 Bft) NO 51 0 min 0,000 mm 0,0 UV-I 0 W/m -6,1 C -4,1 C 0,0 km/h (0 Bft)
17.01.2017 05:00 -4,1 C 86 % 1034,3 hPa 0,0 l/m 0,0 km/h (0 Bft) NO 51 0 min 0,000 mm 0,0 UV-I 0 W/m -6,1 C -4,1 C 0,0 km/h (0 Bft)
17.01.2017 05:05 -4,0 C 86 % 1034,3 hPa 0,0 l/m 0,0 km/h (0 Bft) NO 51 0 min 0,000 mm 0,0 UV-I 0 W/m -6,0 C -4,0 C 0,0 km/h (0 Bft)
17.01.2017 05:10 -4,0 C 86 % 1034,4 hPa 0,0 l/m 0,0 km/h (0 Bft) NO 51 0 min 0,000 mm 0,0 UV-I 0 W/m -6,0 C -4,0 C 0,0 km/h (0 Bft)
17.01.2017 05:15 -4,0 C 86 % 1034,4 hPa 0,0 l/m 0,0 km/h (0 Bft) NO 51 0 min 0,000 mm 0,0 UV-I 0 W/m -6,0 C -4,0 C 0,0 km/h (0 Bft)
17.01.2017 05:20 -4,1 C 86 % 1034,5 hPa 0,0 l/m 0,0 km/h (0 Bft) NO 51 0 min 0,000 mm 0,0 UV-I 0 W/m -6,1 C -4,1 C 0,0 km/h (0 Bft)
17.01.2017 05:25 -4,1 C 86 % 1034,5 hPa 0,0 l/m 0,0 km/h (0 Bft) NO 51 0 min 0,000 mm 0,0 UV-I 0 W/m -6,1 C -4,1 C 0,0 km/h (0 Bft)
17.01.2017 05:30 -4,1 C 86 % 1034,5 hPa 0,0 l/m 0,0 km/h (0 Bft) NO 51 0 min 0,000 mm 0,0 UV-I 0 W/m -6,1 C -4,1 C 0,0 km/h (0 Bft)
17.01.2017 05:35 -4,2 C 86 % 1034,5 hPa 0,0 l/m 0,0 km/h (0 Bft) NO 51 0 min 0,000 mm 0,0 UV-I 0 W/m -6,2 C -4,2 C 0,0 km/h (0 Bft)
17.01.2017 05:40 -4,2 C 87 % 1034,5 hPa 0,0 l/m 0,0 km/h (0 Bft) NO 51 0 min 0,000 mm 0,0 UV-I 0 W/m -6,0 C -4,2 C 0,0 km/h (0 Bft)
17.01.2017 05:45 -4,3 C 87 % 1034,5 hPa 0,0 l/m 0,0 km/h (0 Bft) NO 51 0 min 0,000 mm 0,0 UV-I 0 W/m -6,1 C -4,3 C 0,0 km/h (0 Bft)
17.01.2017 05:50 -4,3 C 88 % 1034,5 hPa 0,0 l/m 0,0 km/h (0 Bft) NO 51 0 min 0,000 mm 0,0 UV-I 0 W/m -6,0 C -4,3 C 0,0 km/h (0 Bft)
17.01.2017 05:55 -4,4 C 88 % 1034,5 hPa 0,0 l/m 0,0 km/h (0 Bft) NO 51 0 min 0,000 mm 0,0 UV-I 0 W/m -6,1 C -4,4 C 0,0 km/h (0 Bft)
17.01.2017 06:00 -4,4 C 88 % 1034,6 hPa 0,0 l/m 0,0 km/h (0 Bft) NO 51 0 min 0,000 mm 0,0 UV-I 0 W/m -6,1 C -4,4 C 0,0 km/h (0 Bft)
17.01.2017 06:05 -4,4 C 88 % 1034,7 hPa 0,0 l/m 0,0 km/h (0 Bft) NO 51 0 min 0,000 mm 0,0 UV-I 0 W/m -6,1 C -4,4 C 0,0 km/h (0 Bft)
17.01.2017 06:10 -4,5 C 88 % 1034,8 hPa 0,0 l/m 0,0 km/h (0 Bft) NO 51 0 min 0,000 mm 0,0 UV-I 0 W/m -6,2 C -4,5 C 0,0 km/h (0 Bft)
17.01.2017 06:15 -4,5 C 89 % 1034,8 hPa 0,0 l/m 0,0 km/h (0 Bft) NO 51 0 min 0,000 mm 0,0 UV-I 0 W/m -6,0 C -4,5 C 0,0 km/h (0 Bft)
17.01.2017 06:20 -4,4 C 89 % 1034,8 hPa 0,0 l/m 0,0 km/h (0 Bft) NO 51 0 min 0,000 mm 0,0 UV-I 0 W/m -5,9 C -4,4 C 0,0 km/h (0 Bft)
17.01.2017 06:25 -4,4 C 89 % 1034,8 hPa 0,0 l/m 0,0 km/h (0 Bft) NO 51 0 min 0,000 mm 0,0 UV-I 0 W/m -5,9 C -4,4 C 0,0 km/h (0 Bft)
17.01.2017 06:30 -4,5 C 89 % 1034,8 hPa 0,0 l/m 0,0 km/h (0 Bft) NO 51 0 min 0,000 mm 0,0 UV-I 0 W/m -6,0 C -4,5 C 0,0 km/h (0 Bft)
17.01.2017 06:35 -4,6 C 89 % 1034,9 hPa 0,0 l/m 0,0 km/h (0 Bft) NO 51 0 min 0,000 mm 0,0 UV-I 0 W/m -6,1 C -4,6 C 0,0 km/h (0 Bft)
17.01.2017 06:40 -4,6 C 89 % 1034,9 hPa 0,0 l/m 0,0 km/h (0 Bft) NO 51 0 min 0,000 mm 0,0 UV-I 0 W/m -6,1 C -4,6 C 0,0 km/h (0 Bft)
17.01.2017 06:45 -4,6 C 89 % 1035,0 hPa 0,0 l/m 0,0 km/h (0 Bft) S-SW 205 0 min 0,000 mm 0,0 UV-I 0 W/m -6,1 C -4,6 C 0,0 km/h (0 Bft)
17.01.2017 06:50 -4,6 C 89 % 1035,0 hPa 0,0 l/m 0,0 km/h (0 Bft) S-SW 205 0 min 0,000 mm 0,0 UV-I 0 W/m -6,1 C -4,6 C 0,0 km/h (0 Bft)
17.01.2017 06:55 -4,6 C 89 % 1035,1 hPa 0,0 l/m 0,0 km/h (0 Bft) S-SW 205 0 min 0,000 mm 0,0 UV-I 0 W/m -6,1 C -4,6 C 0,0 km/h (0 Bft)
17.01.2017 07:00 -4,6 C 89 % 1035,3 hPa 0,0 l/m 0,0 km/h (0 Bft) S-SW 205 0 min 0,000 mm 0,0 UV-I 0 W/m -6,1 C -4,6 C 0,0 km/h (0 Bft)
17.01.2017 07:05 -4,6 C 90 % 1035,4 hPa 0,0 l/m 0,0 km/h (0 Bft) S-SW 205 0 min 0,000 mm 0,0 UV-I 0 W/m -6,0 C -4,6 C 0,0 km/h (0 Bft)
17.01.2017 07:10 -4,5 C 90 % 1035,4 hPa 0,0 l/m 0,0 km/h (0 Bft) S-SW 205 0 min 0,000 mm 0,0 UV-I 0 W/m -5,9 C -4,5 C 0,0 km/h (0 Bft)
17.01.2017 07:15 -4,5 C 90 % 1035,4 hPa 0,0 l/m 0,0 km/h (0 Bft) S-SW 213 0 min 0,000 mm 0,0 UV-I 0 W/m -5,9 C -4,5 C 0,0 km/h (0 Bft)
17.01.2017 07:20 -4,6 C 89 % 1035,4 hPa 0,0 l/m 0,0 km/h (0 Bft) S-SW 213 0 min 0,000 mm 0,0 UV-I 0 W/m -6,1 C -4,6 C 0,0 km/h (0 Bft)
17.01.2017 07:25 -4,6 C 90 % 1035,5 hPa 0,0 l/m 0,0 km/h (0 Bft) W-SW 247 0 min 0,000 mm 0,0 UV-I 0 W/m -6,0 C -4,6 C 0,0 km/h (0 Bft)
17.01.2017 07:30 -4,7 C 90 % 1035,4 hPa 0,0 l/m 0,0 km/h (0 Bft) W-SW 247 0 min 0,000 mm 0,0 UV-I 0 W/m -6,1 C -4,7 C 0,0 km/h (0 Bft)
17.01.2017 07:35 -4,7 C 90 % 1035,5 hPa 0,0 l/m 0,0 km/h (0 Bft) W-SW 247 0 min 0,000 mm 0,0 UV-I 0 W/m -6,1 C -4,7 C 0,0 km/h (0 Bft)
17.01.2017 07:40 -4,7 C 90 % 1035,5 hPa 0,0 l/m 0,0 km/h (0 Bft) W-SW 247 0 min 0,000 mm 0,0 UV-I 0 W/m -6,1 C -4,7 C 0,0 km/h (0 Bft)
17.01.2017 07:45 -4,6 C 90 % 1035,5 hPa 0,0 l/m 0,0 km/h (0 Bft) W-SW 247 0 min 0,000 mm 0,0 UV-I 0 W/m -6,0 C -4,6 C 0,0 km/h (0 Bft)
17.01.2017 07:50 -4,6 C 90 % 1035,5 hPa 0,0 l/m 0,0 km/h (0 Bft) W-SW 247 0 min 0,000 mm 0,0 UV-I 0 W/m -6,0 C -4,6 C 0,0 km/h (0 Bft)
17.01.2017 07:55 -4,6 C 90 % 1035,6 hPa 0,0 l/m 0,0 km/h (0 Bft) W-SW 247 0 min 0,000 mm 0,0 UV-I 0 W/m -6,0 C -4,6 C 0,0 km/h (0 Bft)
17.01.2017 08:00 -4,6 C 90 % 1035,6 hPa 0,0 l/m 0,0 km/h (0 Bft) W-SW 247 0 min 0,000 mm 0,0 UV-I 0 W/m -6,0 C -4,6 C 0,0 km/h (0 Bft)
17.01.2017 08:05 -4,6 C 90 % 1035,7 hPa 0,0 l/m 0,0 km/h (0 Bft) W-SW 247 0 min 0,000 mm 0,0 UV-I 0 W/m -6,0 C -4,6 C 0,0 km/h (0 Bft)
17.01.2017 08:10 -4,6 C 90 % 1035,7 hPa 0,0 l/m 0,0 km/h (0 Bft) W-SW 247 0 min 0,000 mm 0,0 UV-I 0 W/m -6,0 C -4,6 C 0,0 km/h (0 Bft)
17.01.2017 08:15 -4,6 C 90 % 1035,8 hPa 0,0 l/m 0,0 km/h (0 Bft) W-SW 247 0 min 0,000 mm 0,0 UV-I 0 W/m -6,0 C -4,6 C 0,0 km/h (0 Bft)
17.01.2017 08:20 -4,6 C 90 % 1035,7 hPa 0,0 l/m 0,0 km/h (0 Bft) W-SW 247 0 min 0,000 mm 0,0 UV-I 0 W/m -6,0 C -4,6 C 0,0 km/h (0 Bft)
17.01.2017 08:25 -4,6 C 90 % 1035,8 hPa 0,0 l/m 0,0 km/h (0 Bft) W-SW 247 0 min 0,000 mm 0,0 UV-I 2 W/m -6,0 C -4,6 C 0,0 km/h (0 Bft)
17.01.2017 08:30 -4,6 C 90 % 1035,9 hPa 0,0 l/m 0,0 km/h (0 Bft) W-SW 247 0 min 0,000 mm 0,0 UV-I 9 W/m -6,0 C -4,6 C 0,0 km/h (0 Bft)
17.01.2017 08:35 -4,7 C 89 % 1036,0 hPa 0,0 l/m 0,0 km/h (0 Bft) W-SW 247 5 min 0,000 mm 0,0 UV-I 13 W/m -6,2 C -4,7 C 0,0 km/h (0 Bft)
17.01.2017 08:40 -4,7 C 90 % 1036,0 hPa 0,0 l/m 0,0 km/h (0 Bft) W-SW 247 5 min 0,000 mm 0,0 UV-I 18 W/m -6,1 C -4,7 C 0,0 km/h (0 Bft)
17.01.2017 08:45 -4,7 C 90 % 1035,9 hPa 0,0 l/m 0,0 km/h (0 Bft) W-SW 247 5 min 0,000 mm 0,0 UV-I 24 W/m -6,1 C -4,7 C 0,0 km/h (0 Bft)
17.01.2017 08:50 -4,7 C 90 % 1036,0 hPa 0,0 l/m 0,0 km/h (0 Bft) W-SW 247 0 min 0,000 mm 0,0 UV-I 28 W/m -6,1 C -4,7 C 0,0 km/h (0 Bft)
17.01.2017 08:55 -4,4 C 90 % 1036,1 hPa 0,0 l/m 0,0 km/h (0 Bft) W-SW 247 5 min 0,000 mm 0,0 UV-I 51 W/m -5,8 C -4,4 C 0,0 km/h (0 Bft)
17.01.2017 09:00 -4,4 C 90 % 1036,0 hPa 0,0 l/m 0,0 km/h (0 Bft) W-SW 247 5 min 0,000 mm 0,0 UV-I 56 W/m -5,8 C -4,4 C 0,0 km/h (0 Bft)
17.01.2017 09:05 -4,2 C 90 % 1036,0 hPa 0,0 l/m 0,0 km/h (0 Bft) W-SW 247 5 min 0,000 mm 0,0 UV-I 66 W/m -5,6 C -4,2 C 0,0 km/h (0 Bft)
17.01.2017 09:10 -3,8 C 90 % 1036,1 hPa 0,0 l/m 0,0 km/h (0 Bft) W-SW 247 5 min 0,000 mm 0,0 UV-I 72 W/m -5,2 C -3,8 C 0,0 km/h (0 Bft)
17.01.2017 09:15 -3,4 C 89 % 1036,1 hPa 0,0 l/m 0,0 km/h (0 Bft) W-SW 247 5 min 0,000 mm 0,0 UV-I 77 W/m -4,9 C -3,4 C 0,0 km/h (0 Bft)
17.01.2017 09:20 -3,3 C 88 % 1036,1 hPa 0,0 l/m 0,0 km/h (0 Bft) W-SW 247 0 min 0,000 mm 0,0 UV-I 57 W/m -5,0 C -3,3 C 0,0 km/h (0 Bft)
17.01.2017 09:25 -3,3 C 87 % 1036,2 hPa 0,0 l/m 0,0 km/h (0 Bft) W-SW 247 0 min 0,000 mm 0,0 UV-I 50 W/m -5,1 C -3,3 C 0,0 km/h (0 Bft)
17.01.2017 09:30 -3,4 C 87 % 1036,2 hPa 0,0 l/m 0,0 km/h (0 Bft) W-SW 247 0 min 0,000 mm 0,0 UV-I 43 W/m -5,2 C -3,4 C 0,0 km/h (0 Bft)
17.01.2017 09:35 -3,5 C 87 % 1036,3 hPa 0,0 l/m 0,0 km/h (0 Bft) W-SW 247 0 min 0,000 mm 0,0 UV-I 40 W/m -5,3 C -3,5 C 0,0 km/h (0 Bft)
17.01.2017 09:40 -3,6 C 87 % 1036,3 hPa 0,0 l/m 0,0 km/h (0 Bft) W-SW 247 0 min 0,000 mm 0,0 UV-I 43 W/m -5,4 C -3,6 C 0,0 km/h (0 Bft)
17.01.2017 09:45 -3,6 C 87 % 1036,5 hPa 0,0 l/m 0,0 km/h (0 Bft) W-SW 247 0 min 0,000 mm 0,0 UV-I 50 W/m -5,4 C -3,6 C 0,0 km/h (0 Bft)
17.01.2017 09:50 -3,7 C 87 % 1036,4 hPa 0,0 l/m 0,0 km/h (0 Bft) W-SW 247 0 min 0,000 mm 0,0 UV-I 57 W/m -5,5 C -3,7 C 0,0 km/h (0 Bft)
17.01.2017 09:55 -3,6 C 88 % 1036,5 hPa 0,0 l/m 0,0 km/h (0 Bft) W-SW 247 0 min 0,000 mm 0,0 UV-I 59 W/m -5,3 C -3,6 C 0,0 km/h (0 Bft)
17.01.2017 10:00 -3,5 C 88 % 1036,5 hPa 0,0 l/m 0,0 km/h (0 Bft) W-SW 247 0 min 0,000 mm 0,0 UV-I 59 W/m -5,2 C -3,5 C 0,0 km/h (0 Bft)
17.01.2017 10:05 -3,4 C 88 % 1036,5 hPa 0,0 l/m 0,0 km/h (0 Bft) W-SW 247 0 min 0,025 mm 0,0 UV-I 60 W/m -5,1 C -3,4 C 0,0 km/h (0 Bft)
17.01.2017 10:10 -3,5 C 87 % 1036,5 hPa 0,0 l/m 0,0 km/h (0 Bft) W-SW 247 0 min 0,000 mm 0,0 UV-I 62 W/m -5,3 C -3,5 C 0,0 km/h (0 Bft)
17.01.2017 10:15 -3,6 C 87 % 1036,4 hPa 0,0 l/m 0,0 km/h (0 Bft) W-SW 247 0 min 0,000 mm 0,0 UV-I 66 W/m -5,4 C -3,6 C 0,0 km/h (0 Bft)
17.01.2017 10:20 -3,6 C 88 % 1036,5 hPa 0,0 l/m 0,0 km/h (0 Bft) W-SW 247 0 min 0,000 mm 0,0 UV-I 75 W/m -5,3 C -3,6 C 0,0 km/h (0 Bft)
17.01.2017 10:25 -3,5 C 88 % 1036,5 hPa 0,0 l/m 0,0 km/h (0 Bft) W-SW 247 0 min 0,000 mm 0,0 UV-I 84 W/m -5,2 C -3,5 C 0,0 km/h (0 Bft)
17.01.2017 10:30 -3,4 C 88 % 1036,5 hPa 0,0 l/m 0,0 km/h (0 Bft) W-SW 247 0 min 0,000 mm 0,0 UV-I 86 W/m -5,1 C -3,4 C 0,0 km/h (0 Bft)
17.01.2017 10:35 -3,3 C 88 % 1036,6 hPa 0,0 l/m 0,0 km/h (0 Bft) W-SW 247 0 min 0,000 mm 0,4 UV-I 88 W/m -5,0 C -3,3 C 0,0 km/h (0 Bft)
17.01.2017 10:40 -3,3 C 88 % 1036,5 hPa 0,0 l/m 0,0 km/h (0 Bft) W-SW 247 0 min 0,000 mm 0,5 UV-I 94 W/m -5,0 C -3,3 C 0,0 km/h (0 Bft)
17.01.2017 10:45 -3,2 C 88 % 1036,6 hPa 0,0 l/m 0,0 km/h (0 Bft) W-SW 247 0 min 0,000 mm 0,5 UV-I 92 W/m -4,9 C -3,2 C 0,0 km/h (0 Bft)
17.01.2017 10:50 -3,1 C 88 % 1036,6 hPa 0,0 l/m 0,0 km/h (0 Bft) W-SW 247 0 min 0,000 mm 0,5 UV-I 107 W/m -4,8 C -3,1 C 0,0 km/h (0 Bft)
17.01.2017 10:55 -2,8 C 87 % 1036,7 hPa 0,0 l/m 0,0 km/h (0 Bft) W-SW 247 5 min 0,000 mm 0,5 UV-I 180 W/m -4,7 C -2,8 C 0,0 km/h (0 Bft)
17.01.2017 11:00 -2,6 C 87 % 1036,6 hPa 0,0 l/m 0,0 km/h (0 Bft) W-SW 247 5 min 0,000 mm 0,6 UV-I 198 W/m -4,5 C -2,6 C 0,0 km/h (0 Bft)
17.01.2017 11:05 -2,2 C 87 % 1036,7 hPa 0,0 l/m 0,0 km/h (0 Bft) W-SW 247 5 min 0,026 mm 0,6 UV-I 252 W/m -4,1 C -2,2 C 0,0 km/h (0 Bft)
17.01.2017 11:10 -1,8 C 86 % 1036,7 hPa 0,0 l/m 0,0 km/h (0 Bft) W-SW 247 5 min 0,000 mm 0,6 UV-I 207 W/m -3,8 C -1,8 C 0,0 km/h (0 Bft)
17.01.2017 11:15 -1,5 C 84 % 1036,8 hPa 0,0 l/m 0,0 km/h (0 Bft) W-SW 247 5 min 0,000 mm 0,6 UV-I 220 W/m -3,8 C -1,5 C 0,0 km/h (0 Bft)
17.01.2017 11:20 -1,3 C 83 % 1036,7 hPa 0,0 l/m 0,0 km/h (0 Bft) W-SW 247 5 min 0,000 mm 0,6 UV-I 211 W/m -3,8 C -1,3 C 0,0 km/h (0 Bft)
17.01.2017 11:25 -1,1 C 81 % 1036,7 hPa 0,0 l/m 0,0 km/h (0 Bft) W-SW 247 5 min 0,000 mm 0,6 UV-I 292 W/m -3,9 C -1,1 C 0,0 km/h (0 Bft)
17.01.2017 11:30 -1,2 C 81 % 1036,7 hPa 0,0 l/m 0,0 km/h (0 Bft) O-SO 117 5 min 0,000 mm 0,7 UV-I 272 W/m -4,0 C -1,2 C 0,0 km/h (0 Bft)
17.01.2017 11:35 -1,0 C 81 % 1036,8 hPa 0,0 l/m 0,2 km/h (0 Bft) O 93 5 min 0,000 mm 0,7 UV-I 419 W/m -3,8 C -1,0 C 1,6 km/h (1 Bft)
17.01.2017 11:40 -0,9 C 81 % 1036,8 hPa 0,0 l/m 0,0 km/h (0 Bft) O-SO 107 5 min 0,000 mm 0,7 UV-I 409 W/m -3,7 C -0,9 C 0,0 km/h (0 Bft)
17.01.2017 11:45 -0,8 C 81 % 1036,8 hPa 0,0 l/m 0,5 km/h (0 Bft) N-NO 23 5 min 0,000 mm 0,7 UV-I 207 W/m -3,6 C -0,8 C 3,2 km/h (1 Bft)
17.01.2017 11:50 -0,8 C 81 % 1036,8 hPa 0,0 l/m 0,7 km/h (0 Bft) N-NO 17 5 min 0,000 mm 0,7 UV-I 231 W/m -3,6 C -0,8 C 3,2 km/h (1 Bft)
17.01.2017 11:55 -0,7 C 79 % 1036,9 hPa 0,0 l/m 0,4 km/h (0 Bft) NO 44 5 min 0,000 mm 0,7 UV-I 242 W/m -3,9 C -0,7 C 3,2 km/h (1 Bft)
17.01.2017 12:00 -0,5 C 79 % 1036,8 hPa 0,0 l/m 0,5 km/h (0 Bft) NO 53 5 min 0,000 mm 0,8 UV-I 360 W/m -3,7 C -0,5 C 3,2 km/h (1 Bft)
17.01.2017 12:05 -0,6 C 78 % 1036,8 hPa 0,0 l/m 0,9 km/h (0 Bft) O-NO 71 5 min 0,076 mm 0,7 UV-I 254 W/m -3,9 C -0,6 C 3,2 km/h (1 Bft)
17.01.2017 12:10 -0,7 C 78 % 1036,8 hPa 0,0 l/m 1,1 km/h (1 Bft) O-NO 62 5 min 0,000 mm 0,7 UV-I 230 W/m -4,0 C -0,7 C 4,8 km/h (1 Bft)
17.01.2017 12:15 -0,6 C 79 % 1036,9 hPa 0,0 l/m 0,7 km/h (0 Bft) NO 56 5 min 0,000 mm 0,8 UV-I 285 W/m -3,8 C -0,6 C 3,2 km/h (1 Bft)
17.01.2017 12:20 -0,6 C 78 % 1036,8 hPa 0,0 l/m 1,0 km/h (0 Bft) O-NO 61 5 min 0,000 mm 0,8 UV-I 220 W/m -3,9 C -0,6 C 8,0 km/h (2 Bft)
17.01.2017 12:25 -0,3 C 79 % 1036,8 hPa 0,0 l/m 0,0 km/h (0 Bft) NO 45 5 min 0,000 mm 0,8 UV-I 231 W/m -3,5 C -0,3 C 0,0 km/h (0 Bft)
17.01.2017 12:30 0,1 C 76 % 1036,7 hPa 0,0 l/m 0,0 km/h (0 Bft) NO 34 5 min 0,000 mm 0,9 UV-I 398 W/m -3,6 C 0,1 C 1,6 km/h (1 Bft)
17.01.2017 12:35 -0,1 C 74 % 1036,9 hPa 0,0 l/m 6,5 km/h (2 Bft) O-NO 67 5 min 0,000 mm 0,9 UV-I 365 W/m -4,2 C -0,2 C 14,5 km/h (3 Bft)
17.01.2017 12:40 -0,2 C 75 % 1036,8 hPa 0,0 l/m 2,1 km/h (1 Bft) O-NO 67 5 min 0,000 mm 0,8 UV-I 276 W/m -4,1 C -0,2 C 8,0 km/h (2 Bft)
17.01.2017 12:45 0,0 C 75 % 1036,9 hPa 0,0 l/m 0,5 km/h (0 Bft) NO 35 5 min 0,000 mm 0,8 UV-I 236 W/m -3,9 C 0,0 C 4,8 km/h (1 Bft)
17.01.2017 12:50 0,1 C 75 % 1036,9 hPa 0,0 l/m 1,3 km/h (1 Bft) NO 37 5 min 0,000 mm 0,8 UV-I 211 W/m -3,8 C 0,1 C 11,3 km/h (2 Bft)
17.01.2017 12:55 -0,1 C 74 % 1036,8 hPa 0,0 l/m 0,4 km/h (0 Bft) NO 39 5 min 0,000 mm 0,8 UV-I 328 W/m -4,2 C -0,1 C 1,6 km/h (1 Bft)
17.01.2017 13:00 0,1 C 75 % 1036,8 hPa 0,0 l/m 0,1 km/h (0 Bft) NO 46 5 min 0,000 mm 0,8 UV-I 280 W/m -3,8 C 0,1 C 1,6 km/h (1 Bft)
17.01.2017 13:05 0,0 C 74 % 1036,8 hPa 0,0 l/m 0,2 km/h (0 Bft) NO 56 5 min 0,102 mm 0,8 UV-I 200 W/m -4,1 C 0,0 C 1,6 km/h (1 Bft)
17.01.2017 13:10 0,1 C 75 % 1036,8 hPa 0,0 l/m 0,3 km/h (0 Bft) O-NO 64 5 min 0,000 mm 0,8 UV-I 315 W/m -3,8 C 0,1 C 1,6 km/h (1 Bft)
17.01.2017 13:15 0,5 C 75 % 1036,8 hPa 0,0 l/m 0,0 km/h (0 Bft) O-NO 58 5 min 0,000 mm 0,8 UV-I 326 W/m -3,4 C 0,5 C 0,0 km/h (0 Bft)
17.01.2017 13:20 0,7 C 72 % 1036,8 hPa 0,0 l/m 0,2 km/h (0 Bft) O-NO 71 5 min 0,000 mm 0,8 UV-I 333 W/m -3,8 C 0,7 C 3,2 km/h (1 Bft)
17.01.2017 13:25 0,8 C 72 % 1036,7 hPa 0,0 l/m 5,4 km/h (1 Bft) O-NO 67 5 min 0,000 mm 0,8 UV-I 257 W/m -3,7 C 0,8 C 16,1 km/h (3 Bft)
17.01.2017 13:30 0,4 C 71 % 1036,7 hPa 0,0 l/m 4,4 km/h (1 Bft) O-NO 59 5 min 0,000 mm 0,8 UV-I 336 W/m -4,2 C 0,4 C 11,3 km/h (2 Bft)
17.01.2017 13:35 0,2 C 73 % 1036,7 hPa 0,0 l/m 2,3 km/h (1 Bft) O-NO 69 5 min 0,000 mm 0,8 UV-I 319 W/m -4,1 C 0,2 C 9,7 km/h (2 Bft)
17.01.2017 13:40 0,5 C 75 % 1036,8 hPa 0,0 l/m 0,0 km/h (0 Bft) NO 37 5 min 0,000 mm 0,8 UV-I 316 W/m -3,4 C 0,5 C 1,6 km/h (1 Bft)
17.01.2017 13:45 1,1 C 74 % 1036,8 hPa 0,0 l/m 0,3 km/h (0 Bft) N-NO 22 5 min 0,000 mm 0,7 UV-I 303 W/m -3,0 C 1,1 C 1,6 km/h (1 Bft)
17.01.2017 13:50 1,5 C 72 % 1036,7 hPa 0,0 l/m 0,1 km/h (0 Bft) N-NO 15 0 min 0,000 mm 0,6 UV-I 147 W/m -3,0 C 1,5 C 1,6 km/h (1 Bft)
17.01.2017 13:55 1,6 C 70 % 1036,8 hPa 0,0 l/m 0,1 km/h (0 Bft) N 355 0 min 0,000 mm 0,6 UV-I 123 W/m -3,3 C 1,6 C 1,6 km/h (1 Bft)
17.01.2017 14:00 1,4 C 71 % 1036,7 hPa 0,0 l/m 0,0 km/h (0 Bft) N-NO 21 5 min 0,000 mm 0,6 UV-I 168 W/m -3,3 C 1,4 C 0,0 km/h (0 Bft)
17.01.2017 14:05 1,2 C 72 % 1036,7 hPa 0,0 l/m 0,9 km/h (0 Bft) N 5 5 min 0,101 mm 0,6 UV-I 204 W/m -3,3 C 1,2 C 9,7 km/h (2 Bft)
17.01.2017 14:10 1,1 C 71 % 1036,7 hPa 0,0 l/m 0,1 km/h (0 Bft) NO 40 5 min 0,000 mm 0,6 UV-I 217 W/m -3,6 C 1,1 C 1,6 km/h (1 Bft)
17.01.2017 14:15 0,7 C 70 % 1036,6 hPa 0,0 l/m 3,4 km/h (1 Bft) O-NO 59 0 min 0,000 mm 0,6 UV-I 128 W/m -4,1 C 0,7 C 12,9 km/h (3 Bft)
17.01.2017 14:20 0,1 C 72 % 1036,6 hPa 0,0 l/m 3,2 km/h (1 Bft) O-NO 65 5 min 0,000 mm 0,6 UV-I 189 W/m -4,3 C 0,1 C 12,9 km/h (3 Bft)
17.01.2017 14:25 0,1 C 74 % 1036,5 hPa 0,0 l/m 2,3 km/h (1 Bft) NO 55 5 min 0,000 mm 0,5 UV-I 164 W/m -4,0 C 0,1 C 11,3 km/h (2 Bft)
17.01.2017 14:30 0,1 C 74 % 1036,6 hPa 0,0 l/m 0,1 km/h (0 Bft) NO 47 0 min 0,000 mm 0,5 UV-I 127 W/m -4,0 C 0,1 C 1,6 km/h (1 Bft)
17.01.2017 14:35 0,1 C 74 % 1036,7 hPa 0,0 l/m 0,0 km/h (0 Bft) O-NO 78 0 min 0,000 mm 0,5 UV-I 99 W/m -4,0 C 0,1 C 0,0 km/h (0 Bft)
17.01.2017 14:40 0,2 C 75 % 1036,7 hPa 0,0 l/m 0,0 km/h (0 Bft) N 5 0 min 0,000 mm 0,5 UV-I 121 W/m -3,7 C 0,2 C 0,0 km/h (0 Bft)
17.01.2017 14:45 0,3 C 74 % 1036,8 hPa 0,0 l/m 0,0 km/h (0 Bft) O 82 0 min 0,000 mm 0,4 UV-I 122 W/m -3,8 C 0,3 C 0,0 km/h (0 Bft)
17.01.2017 14:50 -0,2 C 75 % 1036,8 hPa 0,0 l/m 2,4 km/h (1 Bft) O 82 0 min 0,000 mm 0,5 UV-I 107 W/m -4,1 C -0,2 C 12,9 km/h (3 Bft)
17.01.2017 14:55 -0,3 C 76 % 1036,8 hPa 0,0 l/m 0,0 km/h (0 Bft) N-NO 23 0 min 0,000 mm 0,5 UV-I 89 W/m -4,0 C -0,3 C 0,0 km/h (0 Bft)
17.01.2017 15:00 -0,3 C 77 % 1036,9 hPa 0,0 l/m 0,0 km/h (0 Bft) N-NO 19 0 min 0,000 mm 0,5 UV-I 63 W/m -3,8 C -0,3 C 0,0 km/h (0 Bft)
17.01.2017 15:05 -0,5 C 76 % 1036,9 hPa 0,0 l/m 0,5 km/h (0 Bft) O-NO 62 5 min 0,051 mm 0,5 UV-I 135 W/m -4,2 C -0,5 C 4,8 km/h (1 Bft)
17.01.2017 15:10 -0,5 C 77 % 1036,9 hPa 0,0 l/m 0,0 km/h (0 Bft) N-NO 32 5 min 0,000 mm 0,5 UV-I 163 W/m -4,0 C -0,5 C 0,0 km/h (0 Bft)
17.01.2017 15:15 -0,4 C 76 % 1036,9 hPa 0,0 l/m 2,3 km/h (1 Bft) O 95 5 min 0,000 mm 0,3 UV-I 175 W/m -4,1 C -0,4 C 12,9 km/h (3 Bft)
17.01.2017 15:20 -0,4 C 76 % 1036,9 hPa 0,0 l/m 6,0 km/h (2 Bft) O-NO 78 5 min 0,000 mm 0,0 UV-I 189 W/m -4,1 C -0,4 C 9,7 km/h (2 Bft)
17.01.2017 15:25 -0,4 C 76 % 1037,0 hPa 0,0 l/m 1,7 km/h (1 Bft) O-NO 60 5 min 0,000 mm 0,0 UV-I 130 W/m -4,1 C -0,4 C 11,3 km/h (2 Bft)
17.01.2017 15:30 -0,7 C 76 % 1037,0 hPa 0,0 l/m 3,1 km/h (1 Bft) NO 41 0 min 0,000 mm 0,0 UV-I 42 W/m -4,4 C -0,7 C 14,5 km/h (3 Bft)
17.01.2017 15:35 -0,9 C 77 % 1037,0 hPa 0,0 l/m 1,1 km/h (1 Bft) NO 43 0 min 0,000 mm 0,0 UV-I 49 W/m -4,4 C -0,9 C 8,0 km/h (2 Bft)
17.01.2017 15:40 -1,1 C 78 % 1036,9 hPa 0,0 l/m 4,5 km/h (1 Bft) NO 44 0 min 0,000 mm 0,0 UV-I 72 W/m -4,4 C -1,1 C 14,5 km/h (3 Bft)
17.01.2017 15:45 -1,2 C 79 % 1037,0 hPa 0,0 l/m 4,7 km/h (1 Bft) O-NO 61 5 min 0,000 mm 0,0 UV-I 106 W/m -4,4 C -1,2 C 11,3 km/h (2 Bft)
17.01.2017 15:50 -1,2 C 79 % 1037,0 hPa 0,0 l/m 5,8 km/h (2 Bft) NO 47 5 min 0,000 mm 0,0 UV-I 97 W/m -4,4 C -1,2 C 11,3 km/h (2 Bft)
17.01.2017 15:55 -1,1 C 79 % 1037,0 hPa 0,0 l/m 1,5 km/h (1 Bft) N 11 5 min 0,000 mm 0,0 UV-I 90 W/m -4,3 C -1,1 C 11,3 km/h (2 Bft)
17.01.2017 16:00 -1,1 C 79 % 1037,0 hPa 0,0 l/m 0,7 km/h (0 Bft) O-NO 78 5 min 0,000 mm 0,0 UV-I 78 W/m -4,3 C -1,1 C 4,8 km/h (1 Bft)
17.01.2017 16:05 -1,2 C 79 % 1037,0 hPa 0,0 l/m 7,0 km/h (2 Bft) NO 43 5 min 0,051 mm 0,0 UV-I 69 W/m -4,4 C -1,8 C 14,5 km/h (3 Bft)
17.01.2017 16:10 -1,2 C 79 % 1037,1 hPa 0,0 l/m 1,1 km/h (1 Bft) O-NO 58 5 min 0,000 mm 0,0 UV-I 58 W/m -4,4 C -1,2 C 9,7 km/h (2 Bft)
17.01.2017 16:15 -1,3 C 79 % 1037,1 hPa 0,0 l/m 4,1 km/h (1 Bft) N-NO 28 5 min 0,000 mm 0,0 UV-I 48 W/m -4,5 C -1,3 C 14,5 km/h (3 Bft)
17.01.2017 16:20 -1,3 C 79 % 1037,1 hPa 0,0 l/m 4,2 km/h (1 Bft) NO 51 5 min 0,000 mm 0,0 UV-I 41 W/m -4,5 C -1,3 C 12,9 km/h (3 Bft)
17.01.2017 16:25 -1,4 C 79 % 1037,1 hPa 0,0 l/m 1,7 km/h (1 Bft) O-NO 65 5 min 0,000 mm 0,0 UV-I 35 W/m -4,6 C -1,4 C 8,0 km/h (2 Bft)
17.01.2017 16:30 -1,5 C 80 % 1037,2 hPa 0,0 l/m 2,8 km/h (1 Bft) NO 43 5 min 0,000 mm 0,0 UV-I 28 W/m -4,5 C -1,5 C 11,3 km/h (2 Bft)
17.01.2017 16:35 -1,7 C 80 % 1037,2 hPa 0,0 l/m 1,2 km/h (1 Bft) NO 34 5 min 0,000 mm 0,0 UV-I 20 W/m -4,7 C -1,7 C 8,0 km/h (2 Bft)
17.01.2017 16:40 -1,8 C 80 % 1037,3 hPa 0,0 l/m 0,5 km/h (0 Bft) NO 43 5 min 0,000 mm 0,0 UV-I 14 W/m -4,8 C -1,8 C 4,8 km/h (1 Bft)
17.01.2017 16:45 -1,9 C 80 % 1037,3 hPa 0,0 l/m 0,0 km/h (0 Bft) NO 48 0 min 0,000 mm 0,0 UV-I 10 W/m -4,9 C -1,9 C 0,0 km/h (0 Bft)
17.01.2017 16:50 -2,1 C 81 % 1037,3 hPa 0,0 l/m 0,5 km/h (0 Bft) N 10 0 min 0,000 mm 0,0 UV-I 8 W/m -4,9 C -2,1 C 6,4 km/h (2 Bft)
17.01.2017 16:55 -2,2 C 81 % 1037,3 hPa 0,0 l/m 1,1 km/h (1 Bft) NO 40 0 min 0,000 mm 0,0 UV-I 5 W/m -5,0 C -2,2 C 8,0 km/h (2 Bft)
17.01.2017 17:00 -2,3 C 81 % 1037,3 hPa 0,0 l/m 0,8 km/h (0 Bft) N 350 0 min 0,000 mm 0,0 UV-I 1 W/m -5,1 C -2,3 C 6,4 km/h (2 Bft)
17.01.2017 17:05 -2,4 C 81 % 1037,3 hPa 0,0 l/m 1,1 km/h (1 Bft) N 10 0 min 0,025 mm 0,0 UV-I 0 W/m -5,2 C -2,4 C 6,4 km/h (2 Bft)
17.01.2017 17:10 -2,6 C 81 % 1037,3 hPa 0,0 l/m 0,7 km/h (0 Bft) N-NO 19 0 min 0,000 mm 0,0 UV-I 0 W/m -5,4 C -2,6 C 4,8 km/h (1 Bft)
17.01.2017 17:15 -2,7 C 82 % 1037,3 hPa 0,0 l/m 0,4 km/h (0 Bft) NO 46 0 min 0,000 mm 0,0 UV-I 0 W/m -5,3 C -2,7 C 3,2 km/h (1 Bft)
17.01.2017 17:20 -2,8 C 82 % 1037,3 hPa 0,0 l/m 0,3 km/h (0 Bft) O-NO 57 0 min 0,000 mm 0,0 UV-I 0 W/m -5,4 C -2,8 C 3,2 km/h (1 Bft)
17.01.2017 17:25 -2,9 C 82 % 1037,4 hPa 0,0 l/m 0,3 km/h (0 Bft) NO 47 0 min 0,000 mm 0,0 UV-I 0 W/m -5,5 C -2,9 C 1,6 km/h (1 Bft)
17.01.2017 17:30 -3,1 C 83 % 1037,4 hPa 0,0 l/m 0,7 km/h (0 Bft) O-NO 64 0 min 0,000 mm 0,0 UV-I 0 W/m -5,6 C -3,1 C 3,2 km/h (1 Bft)
17.01.2017 17:35 -3,1 C 83 % 1037,5 hPa 0,0 l/m 0,5 km/h (0 Bft) O-NO 59 0 min 0,000 mm 0,0 UV-I 0 W/m -5,6 C -3,1 C 4,8 km/h (1 Bft)
17.01.2017 17:40 -3,2 C 84 % 1037,6 hPa 0,0 l/m 0,6 km/h (0 Bft) O-NO 63 0 min 0,000 mm 0,0 UV-I 0 W/m -5,5 C -3,2 C 4,8 km/h (1 Bft)
17.01.2017 17:45 -3,3 C 84 % 1037,6 hPa 0,0 l/m 0,4 km/h (0 Bft) O-NO 63 0 min 0,000 mm 0,0 UV-I 0 W/m -5,6 C -3,3 C 4,8 km/h (1 Bft)
17.01.2017 17:50 -3,5 C 84 % 1037,6 hPa 0,0 l/m 0,1 km/h (0 Bft) O-NO 63 0 min 0,000 mm 0,0 UV-I 0 W/m -5,8 C -3,5 C 1,6 km/h (1 Bft)
17.01.2017 17:55 -3,6 C 84 % 1037,6 hPa 0,0 l/m 0,5 km/h (0 Bft) O-NO 61 0 min 0,000 mm 0,0 UV-I 0 W/m -5,9 C -3,6 C 4,8 km/h (1 Bft)
17.01.2017 18:00 -3,7 C 84 % 1037,6 hPa 0,0 l/m 0,5 km/h (0 Bft) O-NO 61 0 min 0,000 mm 0,0 UV-I 0 W/m -6,0 C -3,7 C 1,6 km/h (1 Bft)
17.01.2017 18:05 -3,8 C 84 % 1037,7 hPa 0,0 l/m 0,9 km/h (0 Bft) NO 45 0 min 0,000 mm 0,0 UV-I 0 W/m -6,1 C -3,8 C 3,2 km/h (1 Bft)
17.01.2017 18:10 -3,9 C 85 % 1037,6 hPa 0,0 l/m 2,5 km/h (1 Bft) N-NO 23 0 min 0,000 mm 0,0 UV-I 0 W/m -6,0 C -3,9 C 6,4 km/h (2 Bft)
17.01.2017 18:15 -4,0 C 85 % 1037,7 hPa 0,0 l/m 2,3 km/h (1 Bft) N-NO 26 0 min 0,000 mm 0,0 UV-I 0 W/m -6,1 C -4,0 C 3,2 km/h (1 Bft)
17.01.2017 18:20 -4,1 C 86 % 1037,7 hPa 0,0 l/m 3,2 km/h (1 Bft) N 11 0 min 0,000 mm 0,0 UV-I 0 W/m -6,1 C -4,1 C 6,4 km/h (2 Bft)
17.01.2017 18:25 -4,1 C 86 % 1037,8 hPa 0,0 l/m 1,4 km/h (1 Bft) NO 35 0 min 0,000 mm 0,0 UV-I 0 W/m -6,1 C -4,1 C 4,8 km/h (1 Bft)
17.01.2017 18:30 -4,1 C 86 % 1037,8 hPa 0,0 l/m 0,6 km/h (0 Bft) O-NO 63 0 min 0,000 mm 0,0 UV-I 0 W/m -6,1 C -4,1 C 3,2 km/h (1 Bft)
17.01.2017 18:35 -4,1 C 86 % 1037,9 hPa 0,0 l/m 1,7 km/h (1 Bft) O-NO 59 0 min 0,000 mm 0,0 UV-I 0 W/m -6,1 C -4,1 C 4,8 km/h (1 Bft)
17.01.2017 18:40 -4,2 C 86 % 1038,0 hPa 0,0 l/m 0,5 km/h (0 Bft) O-NO 59 0 min 0,000 mm 0,0 UV-I 0 W/m -6,2 C -4,2 C 3,2 km/h (1 Bft)
17.01.2017 18:45 -4,3 C 86 % 1038,0 hPa 0,0 l/m 0,0 km/h (0 Bft) O-NO 59 0 min 0,000 mm 0,0 UV-I 0 W/m -6,3 C -4,3 C 0,0 km/h (0 Bft)
17.01.2017 18:50 -4,4 C 86 % 1038,0 hPa 0,0 l/m 0,0 km/h (0 Bft) O-NO 59 0 min 0,000 mm 0,0 UV-I 0 W/m -6,4 C -4,4 C 0,0 km/h (0 Bft)
17.01.2017 18:55 -4,6 C 87 % 1038,0 hPa 0,0 l/m 1,2 km/h (1 Bft) O-NO 59 0 min 0,000 mm 0,0 UV-I 0 W/m -6,4 C -4,6 C 3,2 km/h (1 Bft)
17.01.2017 19:00 -4,6 C 87 % 1038,1 hPa 0,0 l/m 1,4 km/h (1 Bft) O-NO 59 0 min 0,000 mm 0,0 UV-I 0 W/m -6,4 C -4,6 C 3,2 km/h (1 Bft)
17.01.2017 19:05 -4,7 C 87 % 1038,1 hPa 0,0 l/m 1,2 km/h (1 Bft) O-NO 59 0 min 0,000 mm 0,0 UV-I 0 W/m -6,5 C -4,7 C 3,2 km/h (1 Bft)
17.01.2017 19:10 -4,8 C 87 % 1038,2 hPa 0,0 l/m 0,6 km/h (0 Bft) O-NO 59 0 min 0,000 mm 0,0 UV-I 0 W/m -6,6 C -4,8 C 1,6 km/h (1 Bft)
17.01.2017 19:15 -4,8 C 88 % 1038,2 hPa 0,0 l/m 0,0 km/h (0 Bft) O-NO 59 0 min 0,000 mm 0,0 UV-I 0 W/m -6,5 C -4,8 C 0,0 km/h (0 Bft)
17.01.2017 19:20 -4,9 C 88 % 1038,4 hPa 0,0 l/m 0,8 km/h (0 Bft) O-NO 59 0 min 0,000 mm 0,0 UV-I 0 W/m -6,6 C -4,9 C 3,2 km/h (1 Bft)
17.01.2017 19:25 -4,9 C 88 % 1038,4 hPa 0,0 l/m 2,7 km/h (1 Bft) O-NO 59 0 min 0,000 mm 0,0 UV-I 0 W/m -6,6 C -4,9 C 4,8 km/h (1 Bft)
17.01.2017 19:30 -4,9 C 89 % 1038,5 hPa 0,0 l/m 1,1 km/h (1 Bft) O-NO 59 0 min 0,000 mm 0,0 UV-I 0 W/m -6,4 C -4,9 C 3,2 km/h (1 Bft)
17.01.2017 19:35 -5,0 C 88 % 1038,6 hPa 0,0 l/m 0,3 km/h (0 Bft) O-NO 59 0 min 0,000 mm 0,0 UV-I 0 W/m -6,7 C -5,0 C 3,2 km/h (1 Bft)
17.01.2017 19:40 -5,2 C 88 % 1038,6 hPa 0,0 l/m 2,6 km/h (1 Bft) O-NO 60 0 min 0,000 mm 0,0 UV-I 0 W/m -6,9 C -5,2 C 4,8 km/h (1 Bft)
17.01.2017 19:45 -5,2 C 89 % 1038,6 hPa 0,0 l/m 1,5 km/h (1 Bft) O-NO 60 0 min 0,000 mm 0,0 UV-I 0 W/m -6,7 C -5,2 C 3,2 km/h (1 Bft)
17.01.2017 19:50 -5,3 C 89 % 1038,6 hPa 0,0 l/m 0,7 km/h (0 Bft) O-NO 60 0 min 0,000 mm 0,0 UV-I 0 W/m -6,8 C -5,3 C 1,6 km/h (1 Bft)
17.01.2017 19:55 -5,4 C 89 % 1038,7 hPa 0,0 l/m 0,7 km/h (0 Bft) O-NO 60 0 min 0,000 mm 0,0 UV-I 0 W/m -6,9 C -5,4 C 3,2 km/h (1 Bft)
17.01.2017 20:00 -5,5 C 89 % 1038,7 hPa 0,0 l/m 1,1 km/h (1 Bft) O-NO 60 0 min 0,000 mm 0,0 UV-I 0 W/m -7,0 C -5,5 C 3,2 km/h (1 Bft)
17.01.2017 20:05 -5,4 C 90 % 1038,8 hPa 0,0 l/m 0,1 km/h (0 Bft) O-NO 60 0 min 0,000 mm 0,0 UV-I 0 W/m -6,8 C -5,4 C 1,6 km/h (1 Bft)
17.01.2017 20:10 -5,5 C 89 % 1038,7 hPa 0,0 l/m 0,0 km/h (0 Bft) O-NO 60 0 min 0,000 mm 0,0 UV-I 0 W/m -7,0 C -5,5 C 0,0 km/h (0 Bft)
17.01.2017 20:15 -5,7 C 89 % 1038,7 hPa 0,0 l/m 0,1 km/h (0 Bft) O-NO 60 0 min 0,000 mm 0,0 UV-I 0 W/m -7,2 C -5,7 C 1,6 km/h (1 Bft)
17.01.2017 20:20 -5,8 C 89 % 1038,7 hPa 0,0 l/m 0,1 km/h (0 Bft) O-NO 60 0 min 0,000 mm 0,0 UV-I 0 W/m -7,3 C -5,8 C 1,6 km/h (1 Bft)
17.01.2017 20:25 -5,9 C 89 % 1038,6 hPa 0,0 l/m 0,0 km/h (0 Bft) O-NO 60 0 min 0,000 mm 0,0 UV-I 0 W/m -7,4 C -5,9 C 0,0 km/h (0 Bft)
17.01.2017 20:30 -6,1 C 89 % 1038,7 hPa 0,0 l/m 0,2 km/h (0 Bft) O-NO 60 0 min 0,000 mm 0,0 UV-I 0 W/m -7,6 C -6,1 C 1,6 km/h (1 Bft)
17.01.2017 20:35 -6,2 C 89 % 1038,7 hPa 0,0 l/m 0,7 km/h (0 Bft) NO 36 0 min 0,000 mm 0,0 UV-I 0 W/m -7,7 C -6,2 C 3,2 km/h (1 Bft)
17.01.2017 20:40 -6,3 C 89 % 1038,7 hPa 0,0 l/m 0,2 km/h (0 Bft) NO 44 0 min 0,000 mm 0,0 UV-I 0 W/m -7,8 C -6,3 C 1,6 km/h (1 Bft)
17.01.2017 20:45 -6,3 C 89 % 1038,8 hPa 0,0 l/m 0,1 km/h (0 Bft) NO 44 0 min 0,000 mm 0,0 UV-I 0 W/m -7,8 C -6,3 C 1,6 km/h (1 Bft)
17.01.2017 20:50 -6,4 C 90 % 1038,7 hPa 0,0 l/m 0,0 km/h (0 Bft) NO 44 0 min 0,000 mm 0,0 UV-I 0 W/m -7,8 C -6,4 C 0,0 km/h (0 Bft)
17.01.2017 20:55 -6,5 C 90 % 1038,8 hPa 0,0 l/m 0,0 km/h (0 Bft) NO 44 0 min 0,000 mm 0,0 UV-I 0 W/m -7,9 C -6,5 C 0,0 km/h (0 Bft)
17.01.2017 21:00 -6,6 C 89 % 1038,8 hPa 0,0 l/m 0,4 km/h (0 Bft) NO 44 0 min 0,000 mm 0,0 UV-I 0 W/m -8,1 C -6,6 C 1,6 km/h (1 Bft)
17.01.2017 21:05 -6,7 C 90 % 1038,7 hPa 0,0 l/m 0,3 km/h (0 Bft) NO 34 0 min 0,000 mm 0,0 UV-I 0 W/m -8,1 C -6,7 C 3,2 km/h (1 Bft)
17.01.2017 21:10 -6,7 C 89 % 1038,8 hPa 0,0 l/m 0,0 km/h (0 Bft) NO 34 0 min 0,000 mm 0,0 UV-I 0 W/m -8,2 C -6,7 C 0,0 km/h (0 Bft)
17.01.2017 21:15 -6,9 C 89 % 1038,8 hPa 0,0 l/m 0,0 km/h (0 Bft) NO 34 0 min 0,000 mm 0,0 UV-I 0 W/m -8,4 C -6,9 C 0,0 km/h (0 Bft)
17.01.2017 21:20 -7,2 C 89 % 1038,9 hPa 0,0 l/m 0,0 km/h (0 Bft) NO 34 0 min 0,000 mm 0,0 UV-I 0 W/m -8,7 C -7,2 C 0,0 km/h (0 Bft)
17.01.2017 21:25 -7,3 C 89 % 1039,0 hPa 0,0 l/m 0,0 km/h (0 Bft) NO 34 0 min 0,000 mm 0,0 UV-I 0 W/m -8,8 C -7,3 C 0,0 km/h (0 Bft)
17.01.2017 21:30 -7,4 C 89 % 1039,1 hPa 0,0 l/m 0,0 km/h (0 Bft) NO 34 0 min 0,000 mm 0,0 UV-I 0 W/m -8,9 C -7,4 C 0,0 km/h (0 Bft)
17.01.2017 21:35 -7,4 C 90 % 1039,0 hPa 0,0 l/m 0,0 km/h (0 Bft) NO 34 0 min 0,000 mm 0,0 UV-I 0 W/m -8,8 C -7,4 C 0,0 km/h (0 Bft)
17.01.2017 21:40 -7,5 C 90 % 1039,1 hPa 0,0 l/m 0,0 km/h (0 Bft) NO 34 0 min 0,000 mm 0,0 UV-I 0 W/m -8,8 C -7,5 C 0,0 km/h (0 Bft)
17.01.2017 21:45 -7,7 C 90 % 1039,1 hPa 0,0 l/m 0,0 km/h (0 Bft) NO 34 0 min 0,000 mm 0,0 UV-I 0 W/m -9,0 C -7,7 C 0,0 km/h (0 Bft)
17.01.2017 21:50 -7,7 C 90 % 1039,0 hPa 0,0 l/m 0,0 km/h (0 Bft) NO 34 0 min 0,000 mm 0,0 UV-I 0 W/m -9,0 C -7,7 C 0,0 km/h (0 Bft)
17.01.2017 21:55 -7,8 C 90 % 1039,0 hPa 0,0 l/m 0,1 km/h (0 Bft) NO 34 0 min 0,000 mm 0,0 UV-I 0 W/m -9,1 C -7,8 C 1,6 km/h (1 Bft)
17.01.2017 22:00 -7,8 C 90 % 1039,0 hPa 0,0 l/m 0,0 km/h (0 Bft) NO 34 0 min 0,000 mm 0,0 UV-I 0 W/m -9,1 C -7,8 C 0,0 km/h (0 Bft)
17.01.2017 22:05 -7,9 C 90 % 1039,0 hPa 0,0 l/m 0,0 km/h (0 Bft) NO 34 0 min 0,000 mm 0,0 UV-I 0 W/m -9,2 C -7,9 C 0,0 km/h (0 Bft)
17.01.2017 22:10 -8,0 C 90 % 1039,1 hPa 0,0 l/m 0,1 km/h (0 Bft) NO 34 0 min 0,000 mm 0,0 UV-I 0 W/m -9,3 C -8,0 C 1,6 km/h (1 Bft)
17.01.2017 22:15 -8,1 C 90 % 1039,1 hPa 0,0 l/m 0,7 km/h (0 Bft) N-NO 33 0 min 0,000 mm 0,0 UV-I 0 W/m -9,4 C -8,1 C 3,2 km/h (1 Bft)
17.01.2017 22:20 -8,2 C 90 % 1039,0 hPa 0,0 l/m 1,0 km/h (0 Bft) SW 234 0 min 0,000 mm 0,0 UV-I 0 W/m -9,5 C -8,2 C 3,2 km/h (1 Bft)
17.01.2017 22:25 -8,3 C 91 % 1039,0 hPa 0,0 l/m 0,0 km/h (0 Bft) SW 234 0 min 0,000 mm 0,0 UV-I 0 W/m -9,5 C -8,3 C 0,0 km/h (0 Bft)
17.01.2017 22:30 -8,3 C 90 % 1039,0 hPa 0,0 l/m 0,0 km/h (0 Bft) SW 234 0 min 0,000 mm 0,0 UV-I 0 W/m -9,6 C -8,3 C 0,0 km/h (0 Bft)
17.01.2017 22:35 -8,4 C 90 % 1039,0 hPa 0,0 l/m 0,0 km/h (0 Bft) SW 234 0 min 0,000 mm 0,0 UV-I 0 W/m -9,7 C -8,4 C 0,0 km/h (0 Bft)
17.01.2017 22:40 -8,4 C 90 % 1039,1 hPa 0,0 l/m 0,4 km/h (0 Bft) SW 234 0 min 0,000 mm 0,0 UV-I 0 W/m -9,7 C -8,4 C 1,6 km/h (1 Bft)
17.01.2017 22:45 -8,6 C 90 % 1039,1 hPa 0,0 l/m 0,0 km/h (0 Bft) SW 234 0 min 0,000 mm 0,0 UV-I 0 W/m -9,9 C -8,6 C 0,0 km/h (0 Bft)
17.01.2017 22:50 -8,6 C 90 % 1039,1 hPa 0,0 l/m 0,1 km/h (0 Bft) SW 234 0 min 0,000 mm 0,0 UV-I 0 W/m -9,9 C -8,6 C 1,6 km/h (1 Bft)
17.01.2017 22:55 -8,7 C 90 % 1039,2 hPa 0,0 l/m 0,1 km/h (0 Bft) SW 234 0 min 0,000 mm 0,0 UV-I 0 W/m -10,0 C -8,7 C 1,6 km/h (1 Bft)
17.01.2017 23:00 -8,9 C 89 % 1039,1 hPa 0,0 l/m 0,1 km/h (0 Bft) SW 233 0 min 0,000 mm 0,0 UV-I 0 W/m -10,4 C -8,9 C 1,6 km/h (1 Bft)
17.01.2017 23:05 -9,0 C 90 % 1039,2 hPa 0,0 l/m 0,1 km/h (0 Bft) SW 233 0 min 0,000 mm 0,0 UV-I 0 W/m -10,3 C -9,0 C 1,6 km/h (1 Bft)
17.01.2017 23:10 -9,1 C 90 % 1039,3 hPa 0,0 l/m 0,1 km/h (0 Bft) SW 233 0 min 0,000 mm 0,0 UV-I 0 W/m -10,4 C -9,1 C 1,6 km/h (1 Bft)
17.01.2017 23:15 -9,1 C 90 % 1039,1 hPa 0,0 l/m 1,8 km/h (1 Bft) SW 234 0 min 0,000 mm 0,0 UV-I 0 W/m -10,4 C -9,1 C 3,2 km/h (1 Bft)
17.01.2017 23:20 -9,2 C 90 % 1039,2 hPa 0,0 l/m 0,1 km/h (0 Bft) SW 234 0 min 0,000 mm 0,0 UV-I 0 W/m -10,5 C -9,2 C 1,6 km/h (1 Bft)
17.01.2017 23:25 -9,2 C 90 % 1039,2 hPa 0,0 l/m 0,1 km/h (0 Bft) SW 234 0 min 0,000 mm 0,0 UV-I 0 W/m -10,5 C -9,2 C 1,6 km/h (1 Bft)
17.01.2017 23:30 -9,3 C 90 % 1039,2 hPa 0,0 l/m 0,1 km/h (0 Bft) SW 234 0 min 0,000 mm 0,0 UV-I 0 W/m -10,6 C -9,3 C 3,2 km/h (1 Bft)
17.01.2017 23:35 -9,3 C 90 % 1039,3 hPa 0,0 l/m 1,3 km/h (1 Bft) SW 234 0 min 0,000 mm 0,0 UV-I 0 W/m -10,6 C -9,3 C 3,2 km/h (1 Bft)
17.01.2017 23:40 -9,3 C 90 % 1039,2 hPa 0,0 l/m 0,2 km/h (0 Bft) SW 234 0 min 0,000 mm 0,0 UV-I 0 W/m -10,6 C -9,3 C 1,6 km/h (1 Bft)
17.01.2017 23:45 -9,2 C 90 % 1039,2 hPa 0,0 l/m 0,1 km/h (0 Bft) SW 234 0 min 0,000 mm 0,0 UV-I 0 W/m -10,5 C -9,2 C 1,6 km/h (1 Bft)
17.01.2017 23:50 -9,3 C 90 % 1039,3 hPa 0,0 l/m 0,1 km/h (0 Bft) SW 234 0 min 0,000 mm 0,0 UV-I 0 W/m -10,6 C -9,3 C 1,6 km/h (1 Bft)
17.01.2017 23:55 -9,4 C 89 % 1039,3 hPa 0,0 l/m 0,0 km/h (0 Bft) SW 234 0 min 0,000 mm 0,0 UV-I 0 W/m -10,9 C -9,4 C 0,0 km/h (0 Bft)
_ Min-Zeit 23:55 13:55 00:00 - 00:00 - - - - - - 23:55 23:55 00:00
Minimum _ -9,4 C 70 % 1032,8 hPa - 0,0 km/h (0 Bft) - - - - - - -10,9 C -9,4 C 0,0 km/h (0 Bft)
_ Max-Zeit 13:55 00:15 23:10 00:00 16:05 - - 08:35 13:05 12:30 11:35 13:50 13:55 13:25
Maximum _ 1,6 C 91 % 1039,3 hPa 0,0 l/m 7,0 km/h
NO (2 Bft)
- - 5 min 0,102 mm 0,9 UV-I 419 W/m -3,0 C 1,6 C 16,1 km/h
O-NO (3 Bft)
Durchschnitt _ -4,0 C 85 % 1036,4 hPa #0,0 l/m 0,5 km/h (0 Bft) O-NO - #5:25 h #0,457 mm 0,7 UV-I 146 W/m -6,2 C -4,0 C 2,2 km/h (1 Bft)